Location: Stara Lesna
(49.1528°N, 20.2911°E)
Time: 07:48:19
(UTC+02:00)

Cosmos 1536 - Pass Details

Date: 21 September 2019
Orbit: 541 x 559 km, 82.5° (Epoch: 22 October)

Event Time Altitude Azimuth Distance (km) Brightness Sun altitude
Rises 05:26:25 0° 340° (NNW) 2,715 6.3 -10.0°
Reaches altitude 10° 05:28:48 10° 328° (NNW) 1,816 5.3 -9.6°
Maximum altitude 05:32:10 27° 270° (W) 1,070 3.7 -9.1°
Drops below altitude 10° 05:35:32 10° 212° (SSW) 1,804 5.0 -8.6°
Sets 05:37:54 0° 200° (SSW) 2,692 6.0 -8.2°
